Voltar ao catálogo

SL-6 R/B(2)

AtivoHEO
NORAD 17147·ROCKET BODY·🇷🇺 Russia

Lançado Nov 20, 1986 de Plesetsk Cosmodrome

Loading…

Próximas Passagens (próximas 24 horas)

TLE

AtualizadoSource: Space-Track

Época: Sep 14, 2026, 08:24 UTC

1 17147U 86091D   26257.35052846 -.00000434  00000-0  00000-0 0  9991
2 17147  71.4127  47.3631 5605825 324.2697   8.6562  2.03992172296618

Acompanhe SL-6 R/B(2) em tempo real com AllMySat

Download on the App Store